Date String (YYYY-MM-DD hh:mm:ss) UTC,Instrument flags,absolute air pressure of the measurement (hPa),sample flow rate (lpm),inlet stack bypass flow (lpm),air temperature of the measurement (°C),ambient temperature measured by the external sensor (°C),aerosol sample conditioner tube jacket temperature (°C),OPC LED temperature (°C),internal box temperature (°C),relative humidity of the measurement (%),span deviation,mass concentration of particles derived from Lorenz-Mie calculation of OPC scattering (μg/m³),mass concentration of particles derived from Lorenz-Mie calculation of OPC scattering (μg/m³),mass concentration of particles derived from Lorenz-Mie calculation of OPC scattering (μg/m³)
DateTimeUTC,F1_M11,P_M11,Q1_M11,Q2_M11,T1_M11,T2_M11,T3_M11,T4_M11,T5_M11,U1_M11,ZSPAN_M11,X0_M11,X2_M11,X1_M11
2023-07-05 10:00:00,SystemResetWarning,0835.6,5.00,000.00,029.5,027.9,000.0,038.2,031.1,31.4,-001.8,0007.61,0004.82,0004.49
2023-07-05 10:01:00,SystemResetWarning,0835.6,4.99,000.00,029.5,027.9,000.0,038.2,031.0,31.3,-001.4,0007.76,0004.84,0004.50
2023-07-05 10:02:00,SystemResetWarning,0835.6,5.00,000.00,029.5,027.9,000.0,038.2,031.0,31.3,-000.1,0007.84,0004.87,0004.53
2023-07-05 10:03:00,SystemResetWarning,0835.6,4.99,000.00,029.5,027.8,000.0,038.1,031.0,31.4,0000.8,0007.83,0004.86,0004.54
2023-07-05 10:04:00,SystemResetWarning,0835.6,5.00,000.00,029.5,027.8,000.0,038.1,031.0,31.4,-000.1,0007.78,0004.86,0004.56
2023-07-05 10:05:00,SystemResetWarning,0835.7,5.00,000.00,029.5,027.8,000.0,038.1,031.0,31.4,-000.4,0007.80,0004.88,0004.58
2023-07-05 10:06:00,SystemResetWarning,0835.7,5.00,000.00,029.5,027.9,000.0,038.1,031.0,31.4,0000.2,0007.82,0004.91,0004.61
2023-07-05 10:07:00,SystemResetWarning,0835.8,5.00,000.00,029.5,027.9,000.0,038.1,031.0,31.5,0000.8,0007.85,0004.92,0004.63
2023-07-05 10:08:00,SystemResetWarning,0835.8,4.99,000.00,029.5,027.9,000.0,038.1,031.0,31.4,0001.0,0007.89,0004.95,0004.64
2023-07-05 10:09:00,SystemResetWarning,0835.8,4.99,000.00,029.5,027.9,000.0,038.1,031.0,31.4,0001.2,0007.90,0004.98,0004.67
2023-07-05 10:10:00,SystemResetWarning,0835.8,5.01,000.00,029.5,027.9,000.0,038.1,031.0,31.3,0001.5,0007.94,0004.98,0004.68
2023-07-05 10:11:00,SystemResetWarning,0835.8,5.01,000.00,029.5,027.9,000.0,038.1,031.0,31.3,-000.1,0008.53,0005.01,0004.69
2023-07-05 10:12:00,SystemResetWarning,0835.8,4.98,000.00,029.5,027.9,000.0,038.1,031.0,31.3,-000.1,0008.43,0005.02,0004.70
2023-07-05 10:13:00,SystemResetWarning,0835.8,5.00,000.00,029.5,027.9,000.0,038.1,031.0,31.3,-000.4,0008.49,0005.04,0004.70
2023-07-05 10:14:00,SystemResetWarning,0835.8,5.02,000.00,029.5,027.8,000.0,038.1,031.0,31.3,-001.4,0008.69,0005.04,0004.69
2023-07-05 10:15:00,SystemResetWarning,0835.8,5.01,000.00,029.5,027.8,000.0,038.1,031.0,31.3,-001.9,0008.80,0005.06,0004.69
2023-07-05 10:16:00,SystemResetWarning,0835.8,4.99,000.00,029.5,027.8,000.0,038.1,031.0,31.3,-001.6,0008.85,0005.07,0004.69
2023-07-05 10:17:00,SystemResetWarning,0835.8,4.99,000.00,029.5,027.8,000.0,038.1,031.0,31.3,-002.2,0008.99,0005.06,0004.67
2023-07-05 10:18:00,SystemResetWarning,0835.8,5.01,000.00,029.5,027.8,000.0,038.1,031.0,31.3,-002.5,0008.98,0005.06,0004.65
2023-07-05 10:19:00,SystemResetWarning,0835.8,5.01,000.00,029.5,027.8,000.0,038.1,031.0,31.3,-002.9,0009.06,0005.05,0004.65
2023-07-05 10:20:00,SystemResetWarning,0835.8,5.00,000.00,029.5,027.8,000.0,038.1,031.0,31.4,-003.0,0009.47,0005.06,0004.63
2023-07-05 10:21:00,SystemResetWarning,0835.8,5.00,000.00,029.5,027.9,000.0,038.1,031.0,31.4,-003.0,0009.53,0005.05,0004.61
2023-07-05 10:22:00,SystemResetWarning,0835.8,5.00,000.00,029.5,027.9,000.0,038.1,031.0,31.5,-003.1,0008.88,0005.02,0004.61
2023-07-05 10:23:00,SystemResetWarning,0835.8,4.99,000.00,029.5,027.9,000.0,038.1,031.0,31.5,-003.2,0008.83,0005.02,0004.60
2023-07-05 10:24:00,SystemResetWarning,0835.8,5.00,000.00,029.5,028.0,000.0,038.1,031.0,31.5,-003.0,0008.78,0005.01,0004.59
2023-07-05 10:25:00,SystemResetWarning,0835.9,5.00,000.00,029.5,028.0,000.0,038.1,031.0,31.6,-003.2,0008.61,0004.99,0004.57
2023-07-05 10:26:00,SystemResetWarning,0835.9,5.00,000.00,029.5,028.0,000.0,038.1,031.0,31.6,-002.6,0008.43,0004.98,0004.57
2023-07-05 10:27:00,SystemResetWarning,0836.0,5.00,000.00,029.5,028.1,000.0,038.1,031.0,31.6,-002.8,0008.44,0004.98,0004.57
2023-07-05 10:28:00,SystemResetWarning,0836.1,5.00,000.00,029.5,028.1,000.0,038.1,031.1,31.6,-002.7,0008.30,0004.96,0004.56
2023-07-05 10:29:00,SystemResetWarning,0836.1,5.01,000.00,029.5,028.1,000.0,038.1,031.1,31.6,-002.5,0008.22,0004.95,0004.58
2023-07-05 10:30:00,SystemResetWarning,0836.1,5.00,000.00,029.5,028.2,000.0,038.1,031.1,31.6,-002.4,0008.14,0004.94,0004.57
2023-07-05 10:31:00,SystemResetWarning,0836.1,5.00,000.00,029.5,028.2,000.0,038.1,031.1,31.6,-002.6,0007.66,0004.92,0004.56
2023-07-05 10:32:00,SystemResetWarning,0836.1,5.00,000.00,029.6,028.2,000.0,038.1,031.1,31.6,-003.1,0007.64,0004.93,0004.58
2023-07-05 10:33:00,SystemResetWarning,0836.1,5.00,000.00,029.6,028.2,000.0,038.2,031.1,31.6,-003.2,0007.60,0004.92,0004.59
2023-07-05 10:34:00,SystemResetWarning,0836.1,5.00,000.00,029.6,028.3,000.0,038.2,031.1,31.6,-003.1,0007.56,0004.91,0004.59
2023-07-05 10:35:00,SystemResetWarning,0836.1,5.01,000.00,029.6,028.3,000.0,038.2,031.2,31.6,-003.3,0007.49,0004.88,0004.60
2023-07-05 10:36:00,SystemResetWarning,0836.1,5.00,000.00,029.6,028.3,000.0,038.2,031.2,31.6,-003.7,0007.53,0004.89,0004.61
2023-07-05 10:37:00,SystemResetWarning,0836.2,5.00,000.00,029.6,028.3,000.0,038.2,031.2,31.7,-003.8,0007.65,0004.90,0004.61
2023-07-05 10:38:00,SystemResetWarning,0836.1,5.00,000.00,029.6,028.4,000.0,038.2,031.2,31.7,-003.6,0007.87,0004.88,0004.61
2023-07-05 10:39:00,SystemResetWarning,0836.2,5.00,000.00,029.7,028.4,000.0,038.2,031.2,31.6,-004.0,0007.90,0004.90,0004.61
2023-07-05 10:40:00,SystemResetWarning,0836.2,5.00,000.00,029.7,028.4,000.0,038.2,031.2,31.6,-004.5,0007.95,0004.91,0004.61
2023-07-05 10:41:00,SystemResetWarning,0836.2,4.99,000.00,029.7,028.4,000.0,038.2,031.3,31.6,-004.2,0008.20,0004.91,0004.61
2023-07-05 10:42:00,SystemResetWarning,0836.2,4.99,000.00,029.7,028.4,000.0,038.2,031.3,31.5,-003.7,0008.72,0004.91,0004.61
2023-07-05 10:43:00,SystemResetWarning,0836.2,4.99,000.00,029.7,028.4,000.0,038.2,031.3,31.5,-003.1,0008.66,0004.90,0004.62
2023-07-05 10:44:00,SystemResetWarning,0836.3,5.00,000.00,029.7,028.4,000.0,038.3,031.3,31.5,-002.7,0009.55,0004.91,0004.62
2023-07-05 10:45:00,SystemResetWarning,0836.3,5.00,000.00,029.7,028.4,000.0,038.3,031.3,31.5,-002.8,0009.58,0004.93,0004.62
2023-07-05 10:46:00,SystemResetWarning,0836.2,5.00,000.00,029.7,028.4,000.0,038.3,031.3,31.4,-002.5,0009.72,0004.98,0004.64
2023-07-05 10:47:00,SystemResetWarning,0836.4,5.00,000.00,029.7,028.4,000.0,038.3,031.3,31.4,-001.4,0009.80,0005.05,0004.69
2023-07-05 10:48:00,SystemResetWarning,0836.4,5.00,000.00,029.7,028.4,000.0,038.3,031.3,31.4,-000.8,0009.84,0005.09,0004.71
2023-07-05 10:49:00,SystemResetWarning,0836.4,5.00,000.00,029.7,028.4,000.0,038.3,031.3,31.4,-002.1,0009.63,0005.14,0004.74
2023-07-05 10:50:00,SystemResetWarning,0836.5,5.00,000.00,029.8,028.4,000.0,038.3,031.3,31.3,-002.0,0009.74,0005.18,0004.77
2023-07-05 10:51:00,SystemResetWarning,0836.5,5.00,000.00,029.8,028.5,000.0,038.3,031.3,31.4,-002.2,0009.88,0005.22,0004.81
2023-07-05 10:52:00,SystemResetWarning,0836.5,5.00,000.00,029.8,028.5,000.0,038.3,031.3,31.3,-002.6,0009.73,0005.25,0004.84
2023-07-05 10:53:00,SystemResetWarning,0836.5,5.00,000.00,029.8,028.5,000.0,038.3,031.4,31.2,-003.3,0009.60,0005.30,0004.88
2023-07-05 10:54:00,SystemResetWarning,0836.5,5.00,000.00,029.8,028.5,000.0,038.3,031.4,31.3,-003.0,0009.88,0005.35,0004.92
2023-07-05 10:55:00,SystemResetWarning,0836.5,5.00,000.00,029.8,028.5,000.0,038.3,031.3,31.2,-003.2,0009.75,0005.39,0004.94
2023-07-05 10:56:00,SystemResetWarning,0836.5,5.00,000.00,029.8,028.5,000.0,038.4,031.3,31.2,-003.2,0009.84,0005.41,0004.96
2023-07-05 10:57:00,SystemResetWarning,0836.4,5.00,000.00,029.8,028.5,000.0,038.4,031.4,31.3,-003.1,0009.84,0005.41,0004.95
2023-07-05 10:58:00,SystemResetWarning,0836.4,5.00,000.00,029.8,028.5,000.0,038.4,031.4,31.3,-003.2,0009.77,0005.37,0004.95
2023-07-05 10:59:00,SystemResetWarning,0836.4,5.00,000.00,029.8,028.5,000.0,038.4,031.4,31.2,-003.2,0009.78,0005.38,0004.95
